Location: Gombori
(14.9797°N, 2.9419°W)
Time: 08:35:40
(UTC+00:00)

Cosmos 1125 Rocket - Pass Details

Date: 29 July 2021
Orbit: 757 x 780 km, 74.0° (Epoch: 23 September)

Event Time Altitude Azimuth Distance (km) Brightness Sun altitude
Rises 19:18:55 0° 3° (N) 3,254 7.0 -9.1°
Reaches altitude 10° 19:21:36 10° 14° (NNE) 2,326 6.1 -9.6°
Maximum altitude 19:26:09 29° 74° (ENE) 1,388 4.4 -10.7°
Enters shadow 19:29:48 14° 128° (SE) 2,040 5.1 -11.5°
